| time (UTC) | temp F | wind direction | speed MPH | gust MPH | rain 1hr in | rain 24hr in | rain mn in | humidity % | barometer mb |
| 20260510185724 | 61 | 339 | 1.0 | 2.0 | 0.00 | 0.00 | 0.00 | 78 | |
| 20260510184559 | 61 | 348 | 1.0 | 2.0 | 0.00 | 0.00 | 0.00 | 78 | |
| 20260510183532 | 62 | 341 | 1.0 | 2.0 | 0.00 | 0.00 | 0.00 | 78 | |
| 20260510182538 | 62 | 346 | 0.0 | 2.0 | 0.00 | 0.00 | 0.00 | 77 | |
| 20260510181521 | 63 | 346 | 1.0 | 2.0 | 0.00 | 0.00 | 0.00 | 76 | |
| 20260510180527 | 64 | 350 | 1.0 | 3.0 | 0.00 | 0.00 | 0.00 | 73 | |
| 20260510175531 | 64 | 349 | 2.0 | 4.0 | 0.00 | 0.00 | 0.00 | 71 | |
| 20260510174527 | 65 | 342 | 2.0 | 4.0 | 0.00 | 0.00 | 0.00 | 69 | |
| 20260510173531 | 66 | 343 | 2.0 | 4.0 | 0.00 | 0.00 | 0.00 | 68 | |
| 20260510172527 | 66 | 347 | 2.0 | 4.0 | 0.00 | 0.00 | 0.00 | 67 | |
| 20260510171522 | 66 | 350 | 3.0 | 5.0 | 0.00 | 0.00 | 0.00 | 66 | |
| 20260510170524 | 67 | 340 | 4.0 | 7.0 | 0.00 | 0.00 | 0.00 | 62 | |
| 20260510165532 | 67 | 340 | 2.0 | 5.0 | 0.00 | 0.00 | 0.00 | 62 | |
| 20260510164524 | 67 | 337 | 2.0 | 5.0 | 0.00 | 0.00 | 0.00 | 62 | |
| 20260510163526 | 67 | 342 | 2.0 | 4.0 | 0.00 | 0.00 | 0.00 | 60 | |
| 20260510162529 | 68 | 327 | 1.0 | 3.0 | 0.00 | 0.00 | 0.00 | 59 | |
| 20260510161531 | 69 | 335 | 2.0 | 4.0 | 0.00 | 0.00 | 0.00 | 55 | |
| 20260510160523 | 70 | 341 | 2.0 | 4.0 | 0.00 | 0.00 | 0.00 | 57 | |
| 20260510155532 | 70 | 342 | 2.0 | 4.0 | 0.00 | 0.00 | 0.00 | 54 | |
| 20260510154524 | 70 | 345 | 1.0 | 3.0 | 0.00 | 0.00 | 0.00 | 53 | |
| 20260510153536 | 72 | 330 | 0.0 | 2.0 | 0.00 | 0.00 | 0.00 | 51 | |
| 20260510152523 | 72 | 0.0 | 0.0 | 0.00 | 0.00 | 0.00 | 49 | ||
| 20260510151532 | 72 | 354 | 0.0 | 2.0 | 0.00 | 0.00 | 0.00 | 50 | |
| 20260510150523 | 71 | 358 | 1.0 | 2.0 | 0.00 | 0.00 | 0.00 | 51 | |
| 20260510145524 | 71 | 352 | 1.0 | 2.0 | 0.00 | 0.00 | 0.00 | 51 | |
| 20260510144524 | 71 | 18 | 1.0 | 2.0 | 0.00 | 0.00 | 0.00 | 51 | |
| 20260510143531 | 71 | 342 | 1.0 | 2.0 | 0.00 | 0.00 | 0.00 | 51 | |
| 20260510142523 | 71 | 8 | 1.0 | 2.0 | 0.00 | 0.00 | 0.00 | 49 | |
| 20260510141532 | 71 | 341 | 1.0 | 4.0 | 0.00 | 0.00 | 0.00 | 47 | |
| 20260510140520 | 70 | 345 | 1.0 | 2.0 | 0.00 | 0.00 | 0.00 | 51 | |
| 20260510135526 | 70 | 343 | 1.0 | 3.0 | 0.00 | 0.00 | 0.00 | 51 | |
| 20260510134524 | 71 | 352 | 0.0 | 2.0 | 0.00 | 0.00 | 0.00 | 50 | |
| 20260510133532 | 71 | 330 | 1.0 | 3.0 | 0.00 | 0.00 | 0.00 | 49 | |
| 20260510132524 | 70 | 350 | 1.0 | 3.0 | 0.00 | 0.00 | 0.00 | 53 | |
| 20260510131532 | 70 | 3 | 1.0 | 4.0 | 0.00 | 0.00 | 0.00 | 50 | |
| 20260510130524 | 70 | 346 | 1.0 | 2.0 | 0.00 | 0.00 | 0.00 | 52 | |
| 20260510125534 | 71 | 333 | 1.0 | 3.0 | 0.00 | 0.00 | 0.00 | 52 | |
| 20260510124524 | 73 | 98 | 0.0 | 2.0 | 0.00 | 0.00 | 0.00 | 47 | |
| 20260510123531 | 75 | 303 | 1.0 | 2.0 | 0.00 | 0.00 | 0.00 | 45 | |
| 20260510122523 | 75 | 144 | 1.0 | 3.0 | 0.00 | 0.00 | 0.00 | 44 | |
| 20260510121524 | 74 | 146 | 1.0 | 3.0 | 0.00 | 0.00 | 0.00 | 44 | |
| 20260510120524 | 74 | 186 | 1.0 | 3.0 | 0.00 | 0.00 | 0.00 | 43 | |
| 20260510115520 | 75 | 313 | 1.0 | 2.0 | 0.00 | 0.00 | 0.00 | 47 | |
| 20260510114524 | 74 | 164 | 1.0 | 4.0 | 0.00 | 0.00 | 0.00 | 47 | |
| 20260510113532 | 72 | 357 | 1.0 | 4.0 | 0.00 | 0.00 | 0.00 | 49 | |
| 20260510112523 | 71 | 133 | 1.0 | 4.0 | 0.00 | 0.00 | 0.00 | 49 | |
| 20260510111531 | 72 | 169 | 2.0 | 5.0 | 0.00 | 0.00 | 0.00 | 49 | |
| 20260510110524 | 72 | 128 | 1.0 | 3.0 | 0.00 | 0.00 | 0.00 | 52 | |
| 20260510105532 | 73 | 288 | 0.0 | 2.0 | 0.00 | 0.00 | 0.00 | 53 | |
| 20260510104525 | 72 | 107 | 1.0 | 2.0 | 0.00 | 0.00 | 0.00 | 52 | |
| 20260510103520 | 71 | 163 | 1.0 | 3.0 | 0.00 | 0.00 | 0.00 | 55 | |
| 20260510102524 | 70 | 140 | 1.0 | 3.0 | 0.00 | 0.00 | 0.00 | 55 | |
| 20260510101536 | 70 | 119 | 1.0 | 2.0 | 0.00 | 0.00 | 0.00 | 54 | |
| 20260510100526 | 69 | 129 | 1.0 | 2.0 | 0.00 | 0.00 | 0.00 | 58 | |
| 20260510095532 | 69 | 157 | 1.0 | 4.0 | 0.00 | 0.00 | 0.00 | 57 | |
| 20260510094524 | 69 | 173 | 1.0 | 2.0 | 0.00 | 0.00 | 0.00 | 59 | |
| 20260510093526 | 69 | 0 | 0.0 | 2.0 | 0.00 | 0.00 | 0.00 | 59 | |
| 20260510092523 | 67 | 158 | 1.0 | 3.0 | 0.00 | 0.00 | 0.00 | 61 | |
| 20260510091531 | 66 | 178 | 1.0 | 2.0 | 0.00 | 0.00 | 0.00 | 62 | |
| 20260510090523 | 64 | 73 | 1.0 | 3.0 | 0.00 | 0.00 | 0.00 | 63 | |
| 20260510085532 | 64 | 153 | 1.0 | 4.0 | 0.00 | 0.00 | 0.00 | 63 | |
| 20260510084524 | 64 | 117 | 0.0 | 3.0 | 0.00 | 0.00 | 0.00 | 64 | |
| 20260510083531 | 62 | 112 | 0.0 | 2.0 | 0.00 | 0.00 | 0.00 | 66 | |
| 20260510082524 | 62 | 142 | 1.0 | 3.0 | 0.00 | 0.00 | 0.00 | 64 | |
| 20260510081547 | 62 | 144 | 0.0 | 2.0 | 0.00 | 0.00 | 0.00 | 65 | |
| 20260510080524 | 61 | 158 | 1.0 | 2.0 | 0.00 | 0.00 | 0.00 | 68 | |
| 20260510075522 | 59 | 70 | 0.0 | 2.0 | 0.00 | 0.00 | 0.00 | 73 | |
| 20260510074523 | 58 | 196 | 1.0 | 3.0 | 0.00 | 0.00 | 0.00 | 72 | |
| 20260510073532 | 57 | 66 | 0.0 | 2.0 | 0.00 | 0.00 | 0.00 | 77 | |
| 20260510072527 | 55 | 183 | 1.0 | 2.0 | 0.00 | 0.00 | 0.00 | 80 | |
| 20260510071532 | 54 | 344 | 0.0 | 2.0 | 0.00 | 0.00 | 0.00 | 82 | |
| 20260510070520 | 53 | 156 | 0.0 | 2.0 | 0.00 | 0.00 | 0.00 | 85 | |
| 20260510065532 | 52 | 355 | 1.0 | 2.0 | 0.00 | 0.00 | 0.00 | 86 | |
| 20260510064523 | 51 | 351 | 1.0 | 2.0 | 0.00 | 0.00 | 0.00 | 89 | |
| 20260510063521 | 50 | 0.0 | 1.0 | 0.00 | 0.00 | 0.00 | 93 | ||
| 20260510062527 | 49 | 0.0 | 0.0 | 0.00 | 0.00 | 0.00 | 95 | ||
| 20260510061538 | 49 | 337 | 0.0 | 1.0 | 0.00 | 0.00 | 0.00 | 97 | |
| 20260510060524 | 48 | 358 | 0.0 | 2.0 | 0.00 | 0.00 | 0.00 | 97 | |
| 20260510055536 | 47 | 0.0 | 1.0 | 0.00 | 0.00 | 0.00 | 98 | ||
| 20260510054526 | 46 | 0.0 | 0.0 | 0.00 | 0.00 | 0.00 | 98 | ||
| 20260510053531 | 45 | 348 | 0.0 | 1.0 | 0.00 | 0.00 | 0.00 | 98 | |
| 20260510052529 | 45 | 0.0 | 0.0 | 0.00 | 0.00 | 0.00 | 98 | ||
| 20260510051535 | 44 | 0.0 | 0.0 | 0.00 | 0.00 | 0.00 | 98 | ||
| 20260510050522 | 44 | 0.0 | 0.0 | 0.00 | 0.00 | 0.00 | 98 | ||
| 20260510045538 | 43 | 0.0 | 0.0 | 0.00 | 0.00 | 0.00 | 98 | ||
| 20260510044527 | 42 | 0.0 | 1.0 | 0.00 | 0.00 | 0.00 | 98 | ||
| 20260510043523 | 42 | 0.0 | 0.0 | 0.00 | 0.00 | 0.00 | 98 | ||
| 20260510042524 | 41 | 0.0 | 0.0 | 0.00 | 0.00 | 0.00 | 98 | ||
| 20260510041529 | 41 | 0.0 | 0.0 | 0.00 | 0.00 | 0.00 | 98 | ||
| 20260510040525 | 41 | 0.0 | 0.0 | 0.00 | 0.00 | 0.00 | 98 | ||
| 20260510035532 | 40 | 0.0 | 0.0 | 0.00 | 0.00 | 0.00 | 98 | ||
| 20260510034524 | 40 | 0.0 | 0.0 | 0.00 | 0.00 | 0.00 | 98 | ||
| 20260510033536 | 40 | 0.0 | 0.0 | 0.00 | 0.00 | 0.00 | 97 | ||
| 20260510032524 | 40 | 0.0 | 0.0 | 0.00 | 0.00 | 0.00 | 97 | ||
| 20260510031531 | 40 | 5 | 0.0 | 1.0 | 0.00 | 0.00 | 0.00 | 97 | |
| 20260510030525 | 40 | 0.0 | 0.0 | 0.00 | 0.00 | 0.00 | 97 | ||
| 20260510025520 | 40 | 0.0 | 0.0 | 0.00 | 0.00 | 0.00 | 97 | ||
| 20260510024524 | 41 | 0.0 | 0.0 | 0.00 | 0.00 | 0.00 | 97 | ||
| 20260510023529 | 41 | 0.0 | 0.0 | 0.00 | 0.00 | 0.00 | 97 | ||
| 20260510022529 | 41 | 0.0 | 0.0 | 0.00 | 0.00 | 0.00 | 97 | ||
| 20260510021532 | 41 | 0.0 | 0.0 | 0.00 | 0.00 | 0.00 | 97 | ||
| 20260510020527 | 41 | 0.0 | 0.0 | 0.00 | 0.00 | 0.00 | 97 | ||
| 20260510015532 | 41 | 0.0 | 0.0 | 0.00 | 0.00 | 0.00 | 96 | ||
| 20260510014527 | 41 | 0.0 | 0.0 | 0.00 | 0.00 | 0.00 | 96 | ||
| 20260510013532 | 42 | 0.0 | 0.0 | 0.00 | 0.00 | 0.00 | 96 | ||
| 20260510012524 | 42 | 0.0 | 0.0 | 0.00 | 0.00 | 0.00 | 96 | ||
| 20260510011526 | 42 | 0.0 | 0.0 | 0.00 | 0.00 | 0.00 | 96 | ||
| 20260510010524 | 43 | 0.0 | 0.0 | 0.00 | 0.00 | 0.00 | 96 | ||
| 20260510005525 | 43 | 0.0 | 0.0 | 0.00 | 0.00 | 0.00 | 96 | ||
| 20260510004527 | 43 | 0.0 | 0.0 | 0.00 | 0.00 | 0.00 | 95 | ||
| 20260510003533 | 44 | 0.0 | 0.0 | 0.00 | 0.00 | 0.00 | 95 | ||
| 20260510002527 | 44 | 0.0 | 0.0 | 0.00 | 0.00 | 0.00 | 95 | ||
| 20260510001532 | 44 | 0.0 | 0.0 | 0.00 | 0.00 | 0.00 | 95 | ||
| 20260510000520 | 44 | 0.0 | 0.0 | 0.00 | 0.00 | 0.00 | 95 | ||
| 20260509235531 | 44 | 0.0 | 0.0 | 0.00 | 0.00 | 0.00 | 95 | ||
| 20260509234520 | 45 | 0.0 | 0.0 | 0.00 | 0.00 | 0.00 | 95 | ||
| 20260509233531 | 45 | 0.0 | 0.0 | 0.00 | 0.00 | 0.00 | 94 | ||
| 20260509232524 | 45 | 0.0 | 0.0 | 0.00 | 0.00 | 0.00 | 94 | ||
| 20260509231531 | 45 | 0.0 | 0.0 | 0.00 | 0.00 | 0.00 | 94 | ||
| 20260509230523 | 46 | 0.0 | 0.0 | 0.00 | 0.00 | 0.00 | 93 | ||
| 20260509225528 | 46 | 0.0 | 0.0 | 0.00 | 0.00 | 0.00 | 92 | ||
| 20260509224523 | 47 | 0.0 | 0.0 | 0.00 | 0.00 | 0.00 | 90 | ||
| 20260509223529 | 48 | 0.0 | 0.0 | 0.00 | 0.00 | 0.00 | 89 | ||
| 20260509222524 | 49 | 0.0 | 1.0 | 0.00 | 0.00 | 0.00 | 88 | ||
| 20260509221532 | 49 | 172 | 0.0 | 1.0 | 0.00 | 0.00 | 0.00 | 88 | |
| 20260509220527 | 49 | 209 | 0.0 | 1.0 | 0.00 | 0.00 | 0.00 | 87 | |
| 20260509215532 | 50 | 188 | 0.0 | 2.0 | 0.00 | 0.00 | 0.00 | 87 | |
| 20260509214538 | 50 | 0.0 | 1.0 | 0.00 | 0.00 | 0.00 | 87 | ||
| 20260509213531 | 50 | 200 | 0.0 | 3.0 | 0.00 | 0.00 | 0.00 | 89 | |
| 20260509212525 | 49 | 202 | 0.0 | 2.0 | 0.00 | 0.00 | 0.00 | 89 | |
| 20260509211531 | 49 | 0.0 | 1.0 | 0.00 | 0.00 | 0.00 | 88 | ||
| 20260509210523 | 50 | 0.0 | 0.0 | 0.00 | 0.00 | 0.00 | 88 | ||
| 20260509205524 | 50 | 0.0 | 0.0 | 0.00 | 0.00 | 0.00 | 87 | ||
| 20260509204526 | 51 | 344 | 0.0 | 2.0 | 0.00 | 0.00 | 0.00 | 87 | |
| 20260509203535 | 52 | 186 | 0.0 | 2.0 | 0.00 | 0.00 | 0.00 | 86 | |
| 20260509202523 | 52 | 232 | 0.0 | 1.0 | 0.00 | 0.00 | 0.00 | 85 | |
| 20260509201535 | 52 | 197 | 0.0 | 2.0 | 0.00 | 0.00 | 0.00 | 84 | |
| 20260509200523 | 52 | 225 | 0.0 | 1.0 | 0.00 | 0.00 | 0.00 | 84 | |
| 20260509195527 | 53 | 204 | 0.0 | 1.0 | 0.00 | 0.00 | 0.00 | 83 | |
| 20260509194523 | 52 | 0.0 | 0.0 | 0.00 | 0.00 | 0.00 | 82 | ||
| 20260509193529 | 53 | 179 | 0.0 | 1.0 | 0.00 | 0.00 | 0.00 | 81 | |
| 20260509192524 | 54 | 208 | 0.0 | 1.0 | 0.00 | 0.00 | 0.00 | 80 | |
| 20260509191523 | 55 | 0.0 | 0.0 | 0.00 | 0.00 | 0.00 | 78 | ||
| 20260509190523 | 55 | 0.0 | 0.0 | 0.00 | 0.00 | 0.00 | 76 |